Location: DARK SKY Beskydy - Park tmavé oblohy, www.darkskybeskydy.cz
(49.4926°N, 18.5016°E)
Time: 08:25:34
(UTC+02:00)

Explorer 7 - Visible Passes

Search period start: 20 July 2024 00:00
Search period end: 30 July 2024 00:00
Orbit: 465 x 618 km, 50.3° (Epoch: 19 July)

Date Brightness Start Highest point End Pass type
(mag) Time Alt. Az. Time Alt. Az. Time Alt. Az.
20 Jul 9.0 00:25:53 16° ESE 00:25:53 16° ESE 00:27:13 10° E visible
20 Jul 7.0 02:01:19 36° SW 02:03:00 63° SSE 02:07:28 10° ENE visible
20 Jul 7.1 03:38:10 10° W 03:42:44 80° N 03:47:12 10° E visible
21 Jul 8.8 00:17:26 19° ESE 00:17:26 19° ESE 00:19:13 10° E visible
21 Jul 6.9 01:52:52 34° SW 01:54:46 71° SSE 01:59:17 10° ENE visible
21 Jul 7.1 03:29:58 10° W 03:34:33 79° N 03:39:01 10° E visible
22 Jul 8.5 00:08:53 23° ESE 00:08:53 23° ESE 00:11:06 10° E visible
22 Jul 6.9 01:44:18 30° WSW 01:46:31 79° SSE 01:51:03 10° ENE visible
22 Jul 7.1 03:21:45 10° W 03:26:20 80° N 03:30:48 10° E visible
23 Jul 8.1 00:00:09 29° ESE 00:00:09 29° ESE 00:02:57 10° E visible
23 Jul 6.9 01:35:34 24° WSW 01:38:15 86° SSE 01:42:48 10° ENE visible
23 Jul 7.1 03:13:30 10° W 03:18:05 82° N 03:22:34 10° E visible
23 Jul 7.6 23:51:06 39° SE 23:51:06 39° SE 23:54:44 10° E visible
24 Jul 7.0 01:26:29 17° W 01:29:58 89° NNW 01:34:32 10° E visible
24 Jul 7.0 03:05:14 10° W 03:09:49 86° N 03:14:19 10° E visible
24 Jul 7.2 23:41:08 41° S 23:42:03 48° SSE 23:46:28 10° ENE visible
25 Jul 7.0 01:17:06 10° W 01:21:40 84° N 01:26:14 10° E visible
25 Jul 7.0 02:56:57 10° W 03:01:31 89° SSW 03:06:01 10° ESE visible
25 Jul 8.4 21:51:43 10° S 21:54:39 17° SE 21:57:37 10° E visible
25 Jul 7.0 23:29:15 10° SW 23:33:41 56° SSE 23:38:10 10° ENE visible
26 Jul 7.0 01:08:47 10° W 01:13:22 82° N 01:17:56 10° E visible
26 Jul 6.9 02:48:37 10° WNW 02:53:12 83° SSW 02:57:41 10° ESE visible
26 Jul 7.7 04:28:33 10° W 04:32:35 32° SW 04:36:30 10° SSE visible
26 Jul 8.2 21:42:49 10° S 21:46:09 21° SE 21:49:32 10° E visible
26 Jul 6.9 23:20:49 10° WSW 23:25:18 64° SSE 23:29:49 10° ENE visible
27 Jul 7.1 01:00:27 10° W 01:05:01 80° N 01:09:36 10° E visible
27 Jul 6.9 02:40:16 10° WNW 02:44:50 76° SSW 02:49:19 10° ESE visible
27 Jul 7.9 04:20:18 10° W 04:24:08 27° SW 04:27:51 10° SSE visible
27 Jul 8.0 21:34:00 10° SSW 21:37:38 25° SE 21:41:21 10° E visible
27 Jul 6.9 23:12:24 10° WSW 23:16:53 72° SSE 23:21:27 10° ENE visible
28 Jul 7.1 00:52:06 10° W 00:56:40 80° N 01:01:14 10° E visible
28 Jul 6.9 02:31:53 10° WNW 02:36:26 68° SSW 02:40:54 10° ESE visible
28 Jul 8.1 04:12:04 10° W 04:15:38 23° SW 04:19:05 10° SSE visible
28 Jul 7.8 21:25:16 10° SSW 21:29:08 30° SE 21:33:05 10° E visible
28 Jul 6.9 23:03:58 10° WSW 23:08:29 80° SSE 23:13:03 10° ENE visible
29 Jul 7.1 00:43:43 10° W 00:48:18 81° N 00:52:51 10° E visible
29 Jul 7.0 02:23:30 10° WNW 02:28:00 60° SSW 02:32:25 10° SE visible
29 Jul 8.3 04:03:54 10° W 04:07:05 19° SW 04:10:12 10° S visible
29 Jul 7.6 21:16:35 10° SSW 21:20:36 35° SSE 21:24:45 10° E visible
29 Jul 6.9 22:55:33 10° WSW 23:00:02 86° S 23:04:38 10° ENE visible
